TimeMDT,TemperatureF,Dew PointF,Humidity,Sea Level PressureIn,VisibilityMPH,Wind Direction,Wind SpeedMPH,Gust SpeedMPH,PrecipitationIn,Events,Conditions,WindDirDegrees,DateUTC
12:54 AM,39.9,17.1,40,29.90,10.0,South,5.8,-,N/A,,Clear,190,2013-03-16 06:54:00
1:54 AM,37.9,17.1,43,29.89,10.0,West,8.1,-,N/A,,Clear,260,2013-03-16 07:54:00
2:54 AM,39.9,18.0,41,29.88,10.0,SW,3.5,-,N/A,,Clear,230,2013-03-16 08:54:00
3:54 AM,37.0,18.0,46,29.86,10.0,WSW,3.5,-,N/A,,Clear,240,2013-03-16 09:54:00
4:54 AM,37.0,19.0,48,29.85,10.0,SW,5.8,-,N/A,,Clear,230,2013-03-16 10:54:00
5:54 AM,36.0,19.0,50,29.85,10.0,Calm,Calm,-,N/A,,Clear,0,2013-03-16 11:54:00
6:54 AM,37.0,21.0,52,29.86,10.0,WSW,10.4,-,N/A,,Overcast,250,2013-03-16 12:54:00
7:54 AM,37.9,21.0,51,29.86,10.0,WSW,13.8,-,N/A,,Overcast,240,2013-03-16 13:54:00
8:54 AM,39.0,21.9,50,29.87,10.0,WSW,11.5,-,N/A,,Scattered Clouds,250,2013-03-16 14:54:00
9:54 AM,44.1,21.9,42,29.86,10.0,WSW,19.6,-,N/A,,Clear,250,2013-03-16 15:54:00
10:54 AM,46.9,21.0,36,29.86,10.0,West,20.7,-,N/A,,Clear,260,2013-03-16 16:54:00
11:54 AM,48.9,12.9,24,29.85,10.0,West,28.8,35.7,N/A,,Clear,270,2013-03-16 17:54:00
12:54 PM,51.1,8.1,18,29.83,10.0,West,32.2,39.1,N/A,,Clear,270,2013-03-16 18:54:00
1:54 PM,52.0,6.1,16,29.81,10.0,West,31.1,43.7,N/A,,Clear,270,2013-03-16 19:54:00
2:54 PM,53.1,3.0,13,29.77,10.0,West,28.8,39.1,N/A,,Clear,280,2013-03-16 20:54:00
3:54 PM,52.0,1.9,13,29.78,10.0,West,32.2,44.9,N/A,,Clear,270,2013-03-16 21:54:00
4:54 PM,51.1,1.0,13,29.80,10.0,West,23.0,34.5,N/A,,Clear,280,2013-03-16 22:54:00
5:54 PM,48.9,1.0,14,29.80,10.0,West,29.9,35.7,N/A,,Clear,260,2013-03-16 23:54:00
6:54 PM,46.0,3.9,18,29.80,10.0,West,26.5,34.5,N/A,,Clear,270,2013-03-17 00:54:00
7:54 PM,42.1,8.1,25,29.80,10.0,West,26.5,35.7,N/A,,Clear,270,2013-03-17 01:54:00
8:54 PM,39.9,10.9,31,29.83,10.0,WSW,8.1,-,N/A,,Clear,250,2013-03-17 02:54:00
9:54 PM,39.0,12.9,34,29.81,10.0,SSW,5.8,-,N/A,,Clear,200,2013-03-17 03:54:00
10:54 PM,39.0,14.0,36,29.77,10.0,West,11.5,-,N/A,,Clear,260,2013-03-17 04:54:00
11:54 PM,36.0,14.0,41,29.75,10.0,Variable,3.5,-,N/A,,Clear,0,2013-03-17 05:54:00